This is the latest recevied weather packets stored in our database for station/object KQ7A. If no packets are shown the sender has not sent any weather packets the latest 10 day(s).
| Time | Temp. | Humidity | Pressure | Rain* | Wind** | Luminosity | Snow |
|---|---|---|---|---|---|---|---|
| 1788560608 | 18.33° C | 42% | 1015.4 hPa | 0 mm | - | 193 W/m² | - |
| 1788560308 | 18.89° C | 41% | 1015.3 hPa | 0 mm | - | 193 W/m² | - |
| 1788560008 | 18.89° C | 42% | 1015.4 hPa | 0 mm | - | 180 W/m² | - |
| 1788559703 | 18.89° C | 41% | 1015.3 hPa | 0 mm | - | 767 W/m² | - |
| 1788559402 | 18.89° C | 42% | 1015.1 hPa | 0 mm | - | 210 W/m² | - |
| 1788559097 | 18.89° C | 42% | 1015 hPa | 0 mm | - | 225 W/m² | - |
| 1788558793 | 18.89° C | 43% | 1015.1 hPa | 0 mm | - | 227 W/m² | - |
| 1788558489 | 18.89° C | 40% | 1015.1 hPa | 0 mm | - | 211 W/m² | - |
| 1788558184 | 18.89° C | 41% | 1015 hPa | 0 mm | - | 237 W/m² | - |
| 1788557882 | 19.44° C | 41% | 1015 hPa | 0 mm | - | 239 W/m² | - |
| 1788557578 | 18.89° C | 42% | 1015 hPa | 0 mm | - | 311 W/m² | - |
| 1788557274 | 19.44° C | 41% | 1015.1 hPa | 0 mm | - | 293 W/m² | - |
| 1788556974 | 18.89° C | 42% | 1015.1 hPa | 0 mm | - | 260 W/m² | - |
| 1788556669 | 18.89° C | 43% | 1015.2 hPa | 0 mm | - | 262 W/m² | - |
| 1788556364 | 19.44° C | 42% | 1015.3 hPa | 0 mm | - | 263 W/m² | - |
| 1788556058 | 18.89° C | 42% | 1015.3 hPa | 0 mm | - | 255 W/m² | - |
| 1788555753 | 18.89° C | 43% | 1015.1 hPa | 0 mm | - | 270 W/m² | - |
| 1788555450 | 18.89° C | 43% | 1015 hPa | 0 mm | - | 216 W/m² | - |
| 1788555145 | 18.89° C | 43% | 1015 hPa | 0 mm | - | 269 W/m² | - |
| 1788554844 | 18.89° C | 42% | 1015.2 hPa | 0 mm | - | 274 W/m² | - |
| 1788554538 | 18.33° C | 42% | 1014.8 hPa | 0 mm | - | 264 W/m² | - |
| 1788554233 | 18.89° C | 42% | 1015.3 hPa | 0 mm | - | 257 W/m² | - |
| 1788553930 | 18.33° C | 44% | 1015.3 hPa | 0 mm | - | 241 W/m² | - |
| 1788553625 | 18.89° C | 43% | 1015.1 hPa | 0 mm | - | 263 W/m² | - |
| 1788553315 | 18.33° C | 44% | 1015 hPa | 0 mm | - | 264 W/m² | - |
* Rain latest hour (hover to see other rain measurements)
** Current wind speed in m/s (hover to see current wind gust speed)